Flag for U.S.A. Weather past 2 weeks in Victoria, Texas, U.S.A.

Now
77 °F

Passing clouds.


Feels Like: 78 °F
Forecast: 76 / 89 °F
Wind: No wind

Location: Victoria Regional Airport

Current Time: Jul 3, 2015 at 2:00:24 AM

Latest Report: Jul 3, 2015 at 12:51 AM


Visibility: 8 mi

Pressure: 29.98 "Hg

Humidity: 100%

Dew point: 77 °F

Location of VictoriaLocation

Historic Weather in Victoria — Graph

°F

Victoria temperature yesterday

Maximum temperature yesterday: 90 °F (at 1:51 PM)
Minimum temperature yesterday: 71 °F (at 5:51 AM)
Average temperature yesterday: 81 °F

Past Weeks' High & Low Weather Summary

 TemperatureHumidityPressure
High92 °F (Jun 26, 3:51 PM)100% (Jun 18, 12:58 AM)30.15 "Hg (Jun 18, 12:58 AM)
Low71 °F (Jul 2, 5:51 AM)52% (Jun 30, 11:51 AM)29.92 "Hg (Jun 18, 4:51 AM)
Average81 °F86%30.03 "Hg
* Reported Jun 18 12:58 AM — Jul 3 12:51 AM, Victoria, Weather by CustomWeather, © 2015

Note: Actual official high and low records may vary slightly from our data, if they occured in-between our weather recording intervals... More about our weather records

Advertising

Victoria weather history for previous 24 hours

 ConditionsComfort  
Time TempWeatherWind HumidityBarometerVisibility
12:51 AM
Fri, Jul 3
77 °FPassing clouds.No wind100%29.98 "Hg8 mi
11:51 PM
Thu, Jul 2
78 °FPassing clouds.5 mph96%29.97 "Hg9 mi
10:51 PM79 °FPassing clouds.8 mph94%29.94 "Hg10 mi
9:51 PM79 °FPassing clouds.8 mph94%29.94 "Hg10 mi
8:51 PM81 °FSunny.9 mph85%29.94 "Hg10 mi
7:51 PM84 °FSunny.16 mph77%29.94 "Hg10 mi
6:51 PM86 °FSunny.15 mph70%29.96 "Hg10 mi
5:51 PM87 °FSunny.16 mph69%29.97 "Hg10 mi
4:51 PM88 °FPassing clouds.17 mph65%29.99 "Hg10 mi
3:51 PM88 °FScattered clouds.21 mph65%30.00 "Hg10 mi
2:51 PM90 °FPassing clouds.22 mph59%30.00 "Hg10 mi
1:51 PM90 °FPassing clouds.16 mph57%30.01 "Hg10 mi
12:51 PM89 °FPassing clouds.21 mph57%30.01 "Hg9 mi
11:51 AM88 °FPassing clouds.20 mph61%30.03 "Hg9 mi
10:51 AM86 °FBroken clouds.17 mph72%30.03 "Hg9 mi
10:03 AM83 °FBroken clouds.9 mph88%30.04 "Hg8 mi
9:51 AM82 °FPartly sunny.10 mph88%30.03 "Hg8 mi
8:58 AM79 °FOvercast.7 mph97%30.04 "Hg8 mi
7:57 AM74 °FPassing clouds.3 mph100%30.03 "Hg8 mi
6:51 AM71 °FPassing clouds.6 mph100%30.02 "Hg8 mi
5:51 AM71 °FClear.3 mph100%30.00 "Hg10 mi
4:51 AM72 °FClear.3 mph100%29.99 "Hg10 mi
3:51 AM72 °FClear.6 mph100%29.98 "Hg10 mi
2:51 AM72 °FClear.3 mph100%30.00 "Hg10 mi
Weather by CustomWeather, © 2015

See weather overviewHow to use our weather pages